Theta_e
336 345 357 355 353 352 349 347 347 346 345 345 341 339 338 338 336 334 334 333 333 331 331 331 331 331 330 330 331 332 332 333 333 334 336 340 344 349 351 352 352 351 355
339 348 357 356 354 351 350 349 348 347 346 344 341 339 337 336 335 334 333 333 332 331 332 332 332 332 331 331 331 332 331 332 332 333 333 335 338 340 346 352 350 350 354
341 348 352 355 354 353 351 350 348 347 345 344 342 339 338 336 336 335 334 334 334 334 335 335 335 336 335 334 334 334 333 333 333 333 333 329 329 336 339 349 352 351 355
343 347 347 354 353 353 351 350 349 347 346 345 343 339 338 338 336 336 335 335 335 336 336 336 336 336 337 338 338 337 337 337 337 336 329 329 329 336 339 340 351 352 352
342 345 345 354 353 353 352 350 348 347 347 345 343 342 339 339 339 337 337 336 336 337 337 337 338 338 338 340 342 341 340 339 339 337 330 327 325 334 341 349 354 353 351
341 344 347 353 353 353 352 350 348 347 347 346 345 343 342 341 341 340 337 338 338 339 339 340 341 341 341 341 341 344 343 342 342 333 331 331 332 337 343 354 353 353 352
339 342 344 354 353 353 352 351 349 348 347 347 346 345 343 344 342 340 339 340 340 340 341 342 343 343 344 344 343 343 343 343 338 335 333 332 332 340 344 352 353 353 354
338 340 342 353 353 352 352 351 349 348 347 347 347 346 346 345 344 341 341 341 340 340 341 343 344 345 345 344 343 343 344 343 338 333 333 332 335 343 347 352 352 352 351
336 337 341 345 349 353 351 350 349 348 347 347 347 346 346 346 346 345 345 343 342 343 344 345 345 345 344 343 342 342 343 343 335 331 333 331 337 341 348 349 351 352 353
332 333 337 341 344 344 345 351 349 349 348 347 347 347 347 348 347 347 345 346 343 344 345 346 346 345 343 341 340 340 341 342 335 331 331 331 339 341 346 348 347 350 353
334 330 334 337 339 341 342 345 350 349 349 348 347 347 345 340 341 341 344 344 344 346 347 346 346 345 341 339 339 338 339 333 332 331 331 337 340 340 343 347 348 349 349
331 332 336 336 335 339 339 338 342 342 341 342 341 340 340 335 335 339 342 344 344 346 347 346 346 342 340 329 328 334 329 330 331 330 330 339 340 339 342 345 345 346 348
325 334 336 337 335 335 336 336 340 340 339 340 338 336 335 336 335 336 333 335 338 345 340 341 339 335 331 327 326 326 326 327 328 330 334 339 339 339 341 342 341 343 346
315 329 336 338 337 334 334 334 335 337 337 338 338 336 336 333 329 329 329 328 332 335 335 331 330 329 327 327 326 325 326 325 327 329 330 338 339 339 340 342 342 343 345
312 319 332 337 337 336 332 332 333 336 335 336 337 337 336 333 330 328 327 327 329 329 330 327 326 325 325 326 326 327 327 327 331 331 328 337 339 340 341 342 342 342 341
314 313 327 336 337 337 335 332 332 334 334 335 337 336 335 332 330 328 328 328 327 327 327 326 325 324 324 325 326 327 327 326 329 329 328 329 338 342 345 343 341 340 341
315 314 324 335 337 337 336 335 334 334 334 335 336 336 335 332 330 330 329 326 327 327 326 325 325 324 323 323 324 325 324 326 329 327 327 330 332 341 343 342 343 341 342
313 313 315 330 336 336 336 336 336 336 335 334 335 334 334 334 332 330 331 329 328 325 324 323 323 322 324 323 321 322 323 323 326 328 326 328 329 331 339 341 342 342 339
315 314 313 330 335 336 336 335 334 335 335 335 334 334 334 334 333 331 329 328 327 325 324 323 322 321 319 320 321 321 321 321 322 327 324 325 328 329 328 338 340 339 341
313 315 313 328 333 335 333 330 331 334 333 334 334 335 335 335 334 331 329 327 326 325 324 322 322 321 321 320 322 322 320 320 321 321 323 324 325 327 327 326 328 331 338
314 313 315 322 327 333 332 331 331 332 331 331 334 335 334 334 333 330 328 326 325 324 324 322 320 320 318 321 319 316 320 320 318 319 320 321 324 327 326 326 325 327 330
314 314 314 321 329 332 334 334 330 331 327 329 331 333 334 334 332 329 327 325 325 323 322 321 324 316 316 320 314 313 312 316 320 320 319 321 321 325 325 324 326 327 327
312 316 319 324 330 332 330 329 327 327 326 325 326 327 330 332 330 329 327 325 324 323 321 319 318 316 314 314 315 312 308 306 314 320 320 320 321 320 321 322 325 327 327
312 322 328 331 332 333 332 328 328 326 325 322 326 326 326 329 329 328 326 324 323 321 319 319 320 317 315 312 314 316 313 312 311 308 317 319 319 319 318 320 324 325 327
318 328 332 334 333 332 329 330 326 323 322 324 326 324 324 325 327 327 326 324 322 320 320 319 319 317 316 315 313 312 312 313 313 311 309 314 316 317 321 320 320 322 325
330 333 333 333 330 330 328 326 326 323 323 323 322 322 321 321 323 325 325 323 322 320 320 320 320 319 318 317 315 314 312 311 311 313 311 308 311 316 322 323 321 321 323
Wind_Speed
7 13 20 19 19 17 17 18 18 17 17 17 17 17 16 15 14 13 12 11 10 8 7 6 6 4 3 3 3 3 4 5 4 4 4 6 5 5 4 7 9 7 12
13 15 23 21 20 19 18 18 18 17 17 17 17 17 17 16 15 13 12 11 9 8 7 6 5 4 3 1 0 1 2 2 3 5 5 6 8 8 4 7 10 8 12
16 15 18 23 22 21 20 19 19 19 18 17 17 17 16 16 15 13 12 11 10 9 7 6 5 4 3 2 1 2 3 3 3 3 4 3 4 8 5 4 8 11 12
17 16 16 23 23 22 22 20 19 19 19 18 18 18 17 16 15 14 12 11 10 9 8 7 6 5 4 3 2 3 4 5 6 5 2 2 4 8 9 8 9 11 12
14 16 16 24 24 23 22 20 20 19 19 19 19 18 18 17 16 15 14 12 10 9 8 7 6 5 5 5 5 5 5 6 7 5 2 3 3 7 12 13 11 12 12
13 14 18 23 23 22 22 21 20 20 20 20 19 19 18 18 16 15 15 13 11 10 9 8 8 7 7 6 6 7 8 8 7 4 3 4 5 9 13 9 13 11 12
13 12 14 23 23 23 23 22 22 22 21 21 21 20 19 17 16 15 14 13 12 10 10 10 9 9 9 9 8 8 8 8 5 4 3 4 5 10 12 9 10 10 11
16 14 14 22 22 22 23 22 22 22 21 21 20 19 18 18 17 16 14 13 12 11 10 10 10 10 9 8 9 10 10 10 6 3 4 4 8 11 9 10 11 11 12
6 10 12 15 19 21 21 21 21 22 21 20 19 18 18 18 17 16 14 13 12 12 11 11 11 10 9 9 9 9 10 12 5 3 4 3 8 11 9 9 12 13 13
6 10 10 10 12 13 14 21 21 20 18 18 18 18 17 17 17 16 14 13 13 12 12 12 12 10 10 10 11 11 11 13 5 4 3 3 10 12 11 10 9 9 14
7 7 8 11 12 12 12 13 18 20 19 18 17 18 14 6 8 11 11 13 14 13 12 12 11 9 10 11 11 12 13 2 3 3 3 9 10 13 12 13 12 11 11
10 13 13 12 14 13 10 11 12 10 10 10 10 10 7 5 5 7 10 14 14 14 13 12 11 10 10 3 3 9 2 3 3 4 3 13 12 12 14 11 9 10 12
18 8 15 15 12 14 12 8 7 6 7 7 10 8 6 5 5 4 3 3 4 10 4 6 5 3 4 3 4 4 4 4 3 3 7 14 13 13 12 11 12 12 10
9 14 15 15 13 14 10 9 10 9 8 8 9 11 8 5 5 5 3 5 4 3 5 4 3 4 5 5 5 5 5 4 3 3 6 14 13 14 13 12 14 11 11
8 12 14 14 14 14 13 9 10 11 10 10 9 11 9 8 7 5 5 4 4 4 4 5 4 4 5 5 5 5 5 6 6 4 3 13 13 14 17 16 15 11 11
10 9 9 14 15 13 15 15 12 10 10 8 8 10 12 7 7 6 6 6 4 5 4 4 4 4 5 4 5 5 6 5 4 4 4 5 11 10 11 14 12 12 13
9 9 12 16 14 15 17 13 11 10 10 10 9 11 12 10 8 10 5 5 6 4 5 4 3 3 4 3 5 4 4 5 4 5 5 4 4 10 13 13 14 13 12
10 10 10 10 14 14 14 13 10 9 9 8 8 9 12 12 11 6 6 5 4 4 4 4 4 4 4 3 3 4 4 4 5 5 4 4 4 4 9 12 12 10 12
14 11 9 10 14 17 13 9 9 8 8 7 7 8 12 12 11 9 5 5 5 4 3 4 3 3 3 4 4 4 4 4 5 3 5 5 5 4 4 9 11 11 11
9 9 7 9 10 10 6 5 4 5 5 7 8 8 11 9 10 6 6 6 5 4 4 4 4 3 4 4 3 4 4 4 3 4 5 3 4 4 4 5 3 4 11
9 7 9 10 9 10 7 8 5 9 7 6 6 9 8 7 9 9 5 5 5 5 5 3 2 4 2 2 1 2 3 3 3 4 3 3 4 5 4 5 3 3 4
12 11 8 9 9 9 7 6 4 6 3 5 5 6 9 12 10 8 7 5 6 4 4 4 4 2 2 4 3 1 1 3 2 3 2 4 5 3 4 5 5 5 4
10 9 7 8 8 7 8 8 5 7 6 4 4 4 4 6 7 7 6 5 5 4 4 4 4 6 3 2 4 4 2 3 1 3 2 4 4 3 2 4 5 5 5
10 5 7 7 9 9 11 8 12 7 8 3 5 3 3 5 6 6 6 6 5 4 5 4 4 3 3 3 1 2 1 2 2 1 2 2 3 2 3 3 4 4 5
7 6 8 10 9 9 9 11 8 8 4 5 6 8 5 4 6 6 6 6 6 4 4 5 3 4 3 3 3 2 1 1 1 2 2 2 3 2 1 3 2 3 4
6 8 8 11 9 10 9 9 11 11 9 7 6 6 4 3 4 5 6 5 4 4 5 5 4 5 5 4 3 3 4 3 3 2 1 1 1 2 2 3 3 2 0
Wind_Direction
210 163 164 166 172 167 162 154 150 145 140 137 137 135 133 132 133 135 137 135 133 130 128 121 110 90 73 63 48 34 26 10 4 3 3 354 343 356 189 180 165 164 158
132 162 165 169 174 170 169 162 156 152 148 144 142 142 141 140 141 142 142 141 142 144 141 137 132 132 135 128 37 1 5 355 340 333 334 347 339 326 327 195 174 172 167
140 157 167 173 175 173 174 168 162 155 153 151 149 149 148 149 149 151 153 153 155 156 158 156 155 160 170 181 246 274 289 288 292 307 312 26 331 306 295 240 202 185 168
150 159 174 178 177 177 177 172 167 160 159 157 158 157 158 158 157 161 164 166 168 172 176 176 183 187 199 196 226 261 273 281 284 287 32 345 311 302 299 296 201 185 186
160 165 177 182 181 179 178 173 169 167 166 165 166 165 166 168 169 169 172 175 180 185 190 195 203 214 224 226 229 236 251 265 279 292 338 307 286 289 294 277 203 188 186
167 174 181 184 184 182 178 175 174 172 173 174 171 174 173 175 177 176 177 180 188 196 204 210 217 229 244 248 246 255 237 251 264 289 299 296 301 297 310 196 179 186 187
172 180 181 187 189 184 180 180 179 180 179 180 180 178 178 178 181 182 183 185 193 204 215 221 230 239 250 252 258 247 235 250 259 269 280 289 289 294 301 172 173 179 180
171 181 186 190 194 188 184 184 185 185 184 184 185 183 182 180 182 187 191 192 198 211 223 231 237 248 251 248 253 252 248 246 255 254 287 287 289 307 280 185 184 181 186
178 186 186 191 197 195 191 187 190 190 188 187 188 188 188 187 186 188 194 198 203 213 225 237 244 247 252 255 261 260 248 247 240 243 258 277 290 306 261 206 190 187 183
175 189 202 201 198 196 195 195 195 195 192 193 190 193 196 194 190 193 193 200 206 215 228 244 250 253 255 255 256 257 255 252 244 232 254 266 281 287 256 216 205 204 188
204 205 205 198 197 198 200 199 197 198 198 197 198 198 198 193 199 197 193 200 208 218 230 239 241 248 257 259 256 255 254 234 228 238 244 264 274 286 276 239 219 203 198
206 203 198 204 202 193 194 193 193 192 195 197 197 195 187 172 186 195 197 205 213 222 229 235 239 242 253 235 261 263 263 242 228 229 238 259 268 276 276 241 233 218 202
214 195 204 204 200 194 197 190 190 190 190 190 186 179 164 173 186 198 200 210 207 224 210 226 233 227 235 224 239 245 248 246 235 230 245 255 259 260 263 242 221 229 202
214 213 207 203 198 198 192 193 191 195 196 194 191 172 169 174 180 194 198 208 207 192 201 198 206 217 243 236 230 243 240 233 229 234 238 247 249 249 256 229 226 227 206
210 215 213 193 197 196 193 191 195 198 200 194 181 182 178 179 190 183 206 203 203 182 192 198 207 217 234 239 231 229 247 238 224 217 229 242 240 241 246 230 227 226 225
246 227 202 198 202 187 196 196 198 196 196 189 188 182 183 167 186 191 211 207 200 193 196 193 193 214 227 223 244 218 243 253 228 225 240 239 240 240 218 203 215 220 230
247 243 191 201 193 194 199 200 195 194 186 187 186 183 174 179 180 201 213 194 207 192 186 174 203 218 227 217 242 233 228 258 258 246 236 240 248 235 199 198 207 221 226
245 231 210 200 189 188 200 198 198 191 189 188 183 175 178 184 189 180 210 199 189 178 164 163 184 216 220 207 234 242 255 261 255 246 241 244 232 195 205 204 212 222 230
249 244 223 184 182 192 200 192 191 180 180 177 172 173 181 181 185 177 194 186 187 154 164 184 196 189 216 245 245 237 234 247 242 252 242 236 232 214 177 210 210 222 221
259 236 194 192 185 183 156 137 129 158 166 161 169 173 176 175 169 178 175 178 157 155 185 190 194 205 210 232 236 245 235 244 247 235 231 226 229 234 204 195 196 231 217
255 225 198 181 185 163 158 160 170 186 163 161 165 165 150 146 177 180 180 162 154 178 198 170 154 232 277 194 204 271 258 240 262 242 233 207 225 203 201 216 191 214 228
244 228 212 197 162 178 172 171 140 149 115 134 142 148 155 173 160 159 170 169 177 168 181 179 199 203 224 179 163 97 288 313 271 235 227 225 218 219 204 211 209 200 202
235 227 205 204 163 144 120 113 100 100 104 97 116 122 172 162 149 161 152 164 166 170 191 197 192 189 207 206 210 153 129 223 44 336 257 227 198 201 227 230 221 209 186
236 168 173 147 127 128 144 131 148 142 147 145 149 117 129 162 152 144 153 161 165 182 197 200 189 181 154 189 221 214 63 140 171 186 221 199 176 199 222 240 223 209 190
208 172 137 129 132 132 131 139 134 114 105 127 119 124 134 131 142 143 153 166 178 178 201 193 185 192 182 162 173 150 142 45 76 117 297 7 81 52 324 217 186 208 206
119 116 124 122 124 124 129 128 131 132 131 122 121 127 132 125 130 156 171 162 168 182 193 198 207 200 198 198 190 194 165 165 183 155 156 302 135 61 70 62 57 54 58